Location: Lynch Observatory
(39.9540°N, 75.1861°W)
Time: 19:07:19
(UTC-04:00)

UWE-3 - Visible Passes

Search period start: 24 April 2024 00:00
Search period end: 04 May 2024 00:00
Orbit: 569 x 656 km, 97.8° (Epoch: 24 April)

Date Brightness Start Highest point End Pass type
(mag) Time Alt. Az. Time Alt. Az. Time Alt. Az.
24 Apr ? 02:21:58 10° ENE 02:23:05 12° E 02:23:05 12° E visible
24 Apr ? 03:55:57 10° N 04:00:05 54° WNW 04:00:05 54° WNW visible
25 Apr ? 02:35:53 10° NE 02:38:16 18° E 02:38:16 18° E visible
25 Apr ? 04:11:02 10° N 04:14:59 37° WNW 04:15:16 36° W visible
26 Apr ? 02:50:13 10° NE 02:53:25 26° E 02:53:25 26° E visible
26 Apr ? 04:26:12 10° NNW 04:29:46 26° WNW 04:30:26 25° W visible
27 Apr ? 03:04:46 10° NNE 03:08:33 39° E 03:08:33 39° E visible
27 Apr ? 04:41:31 10° NNW 04:44:31 19° WNW 04:45:34 17° W visible
28 Apr ? 03:19:26 10° NNE 03:23:40 58° E 03:23:40 58° E visible
28 Apr ? 04:57:09 10° NW 04:59:12 13° WNW 05:00:41 11° W visible
29 Apr ? 03:34:10 10° NNE 03:38:33 86° ESE 03:38:45 81° S visible
30 Apr ? 02:15:51 10° ENE 02:16:49 11° E 02:16:49 11° E visible
30 Apr ? 03:49:00 10° N 03:53:19 65° WNW 03:53:49 59° WSW visible
01 May ? 02:29:10 10° NE 02:31:51 16° E 02:31:51 16° E visible
01 May ? 04:03:53 10° N 04:08:03 44° WNW 04:08:51 39° WSW visible
02 May ? 02:43:15 10° NE 02:46:47 23° E 02:46:52 23° E visible
02 May ? 04:18:51 10° N 04:22:43 31° WNW 04:23:52 27° W visible
03 May ? 02:57:35 10° NNE 03:01:35 33° E 03:01:51 33° ESE visible
03 May ? 04:33:56 10° NNW 04:37:20 22° WNW 04:38:51 19° W visible
